Location: Unspecified
(0.0000°N, 0.0000°E)
Time: 02:28:59
(UTC+00:00)

STARLINK-2041 - Pass Details

Date: 24 February 2021
Orbit: 316 x 318 km, 53.1° (Epoch: 23 February)

Event Time Altitude Azimuth Distance (km) Brightness Sun altitude
Exits shadow 05:20:04 - 349° (NNW) 1,645 5.8 -13.1°
Reaches altitude 10° 05:21:12 10° 358° (N) 1,221 5.3 -12.8°
Maximum altitude 05:23:29 24° 56° (NE) 714 4.8 -12.3°
Drops below altitude 10° 05:25:48 10° 114° (ESE) 1,229 6.8 -11.7°
Sets 05:27:58 0° 128° (SE) 2,065 7.7 -11.2°
